Weather History for Marshfield, WI

Change the Weather History Date:

Thursday, April 5, 2012

  Actual Average Record
Temperature  
Mean Temperature 41 °F -  
Max Temperature 54 °F 49 °F 79 °F (1991)
Min Temperature 30 °F 27 °F 10 °F (1972)
Degree Days  
Heating Degree Days 24    
Moisture  
Dew Point 25 °F    
Average Humidity 54    
Maximum Humidity 76    
Minimum Humidity 32    
Precipitation  
Precipitation 0.00 in - - ()
Sea Level Pressure  
Sea Level Pressure 30.16 in    
Wind  
Wind Speed 8 mph (East)    
Max Wind Speed 13 mph    
Max Gust Speed 21 mph    
Visibility 10 miles    
Events      
Averages and records for this station are not official NWS values.
T = Trace of Precipitation, MM = Missing Value Source: NWS Daily Summary

Daily Weather History Graph

Daily Weather History Graph

Search for Another Location

Airport:

Trip Planner

Search our weather history database for the weather conditions in past years. The results will help you decide how hot, cold, wet, or windy it might be!

Date:

Astronomy

Apr. 05, 2012 Rise Set
Actual Time 6:33 AM CDT 7:33 PM CDT
Civil Twilight 6:03 AM CDT 8:03 PM CDT
Nautical Twilight 5:28 AM CDT 8:39 PM CDT
Astronomical Twilight 4:50 AM CDT 9:16 PM CDT
Moon 6:39 PM CDT (4/5) 5:31 AM CDT (4/5)
Length of Visible Light 13h 59m
Length of Day
13h 00m
Waxing Gibbous, 98% of the Moon is Illuminated
Apr 5
Waxing Gibbous
Apr 6
Full
Apr 13
Last Quarter
Apr 21
New
Apr 29
First Quarter

Hourly Weather History & Observations

Time (CDT) Temp. Windchill Dew Point Humidity Pressure Visibility Wind Dir Wind Speed Gust Speed Precip Events Conditions
12:54 AM 39.9 °F 33.9 °F 28.0 °F 63% 30.06 in 10.0 mi East 9.2 mph - N/A   Clear
1:54 AM 37.9 °F 34.4 °F 27.0 °F 65% 30.07 in 10.0 mi East 4.6 mph - N/A   Clear
2:54 AM 35.1 °F 30.1 °F 26.1 °F 70% 30.09 in 10.0 mi East 5.8 mph - N/A   Clear
3:54 AM 34.0 °F 27.2 °F 25.0 °F 70% 30.09 in 10.0 mi East 8.1 mph - N/A   Clear
4:54 AM 30.9 °F 24.3 °F 24.1 °F 76% 30.11 in 10.0 mi East 6.9 mph - N/A   Clear
5:54 AM 30.9 °F 23.5 °F 23.0 °F 72% 30.12 in 10.0 mi East 8.1 mph - N/A   Clear
6:54 AM 30.0 °F 23.2 °F 23.0 °F 75% 30.15 in 10.0 mi ENE 6.9 mph - N/A   Clear
7:54 AM 33.1 °F 23.9 °F 25.0 °F 72% 30.17 in 10.0 mi East 12.7 mph - N/A   Clear
8:54 AM 35.1 °F 26.4 °F 24.1 °F 64% 30.19 in 10.0 mi East 12.7 mph - N/A   Clear
9:54 AM 37.9 °F 32.1 °F 25.0 °F 60% 30.19 in 10.0 mi East 8.1 mph 20.7 mph N/A   Clear
10:54 AM 41.0 °F 34.7 °F 25.0 °F 53% 30.20 in 10.0 mi East 10.4 mph - N/A   Clear
11:54 AM 44.1 °F 38.1 °F 25.0 °F 47% 30.19 in 10.0 mi East 11.5 mph 17.3 mph N/A   Clear
12:54 PM 46.9 °F - 26.1 °F 44% 30.17 in 10.0 mi ENE 9.2 mph 19.6 mph N/A   Clear
1:54 PM 48.9 °F - 25.0 °F 39% 30.17 in 10.0 mi East 8.1 mph - N/A   Clear
2:54 PM 51.1 °F - 23.0 °F 33% 30.15 in 10.0 mi Variable 6.9 mph - N/A   Clear
3:54 PM 52.0 °F - 24.1 °F 34% 30.15 in 10.0 mi ENE 9.2 mph - N/A   Clear
4:54 PM 52.0 °F - 23.0 °F 32% 30.14 in 10.0 mi ENE 6.9 mph - N/A   Clear
5:54 PM 52.0 °F - 23.0 °F 32% 30.14 in 10.0 mi ENE 9.2 mph - N/A   Clear
6:54 PM 51.1 °F - 23.0 °F 33% 30.16 in 10.0 mi East 4.6 mph - N/A   Clear
7:54 PM 48.0 °F - 23.0 °F 37% 30.17 in 10.0 mi East 3.5 mph - N/A   Clear
8:54 PM 45.0 °F 43.5 °F 24.1 °F 44% 30.18 in 10.0 mi East 3.5 mph - N/A   Clear
9:54 PM 41.0 °F 38.0 °F 25.0 °F 53% 30.20 in 10.0 mi ESE 4.6 mph - N/A   Clear
10:54 PM 37.9 °F 32.7 °F 26.1 °F 62% 30.23 in 10.0 mi SE 6.9 mph - N/A   Clear
11:54 PM 37.0 °F 33.3 °F 26.1 °F 65% 30.25 in 10.0 mi ESE 4.6 mph - N/A   Clear